TimeCDT,TemperatureF,Dew PointF,Humidity,Sea Level PressureIn,VisibilityMPH,Wind Direction,Wind SpeedMPH,Gust SpeedMPH,PrecipitationIn,Events,Conditions,WindDirDegrees,DateUTC
12:52 AM,68.0,55.0,63,29.94,10.0,ENE,5.8,-,N/A,,Scattered Clouds,70,2012-09-26 05:52:00
1:52 AM,66.9,55.9,68,29.94,10.0,Calm,Calm,-,N/A,,Scattered Clouds,0,2012-09-26 06:52:00
2:52 AM,68.0,57.2,68,29.96,10.0,ENE,5.8,-,N/A,,Overcast,60,2012-09-26 07:52:00
3:18 AM,66.2,57.2,73,29.94,10.0,East,6.9,-,N/A,Thunderstorm,Thunderstorm,100,2012-09-26 08:18:00
3:39 AM,64.4,57.2,77,29.94,1.8,Variable,4.6,-,0.00,Rain-Thunderstorm,Light Thunderstorms and Rain,0,2012-09-26 08:39:00
3:49 AM,64.4,60.8,88,29.95,3.0,NE,3.5,-,0.18,Rain-Thunderstorm,Thunderstorms and Rain,40,2012-09-26 08:49:00
3:52 AM,64.9,60.1,84,29.93,8.0,Calm,Calm,-,0.18,Rain-Thunderstorm,Light Thunderstorms and Rain,0,2012-09-26 08:52:00
4:01 AM,64.4,59.0,83,29.96,1.8,NE,15.0,18.4,0.13,Rain-Thunderstorm,Heavy Thunderstorms and Rain,50,2012-09-26 09:01:00
4:07 AM,64.4,59.0,83,29.96,2.0,WSW,10.4,21.9,0.31,Rain-Thunderstorm,Thunderstorms and Rain,240,2012-09-26 09:07:00
4:16 AM,64.4,59.0,83,29.95,10.0,Variable,3.5,-,0.32,Rain-Thunderstorm,Light Thunderstorms and Rain,0,2012-09-26 09:16:00
4:42 AM,64.4,60.8,88,29.96,10.0,North,8.1,-,0.32,,Overcast,350,2012-09-26 09:42:00
4:52 AM,63.0,60.1,90,29.93,10.0,North,6.9,-,0.32,,Overcast,10,2012-09-26 09:52:00
5:52 AM,63.0,59.0,87,29.96,10.0,North,8.1,-,0.00,,Overcast,10,2012-09-26 10:52:00
6:52 AM,62.1,59.0,90,29.96,10.0,ENE,4.6,-,0.05,,Clear,60,2012-09-26 11:52:00
7:52 AM,62.1,59.0,90,29.96,10.0,SE,5.8,-,N/A,,Partly Cloudy,130,2012-09-26 12:52:00
8:52 AM,64.0,61.0,90,29.96,10.0,SSE,6.9,-,N/A,,Clear,150,2012-09-26 13:52:00
9:52 AM,66.9,61.0,81,29.97,10.0,SSE,6.9,-,N/A,,Clear,160,2012-09-26 14:52:00
10:52 AM,71.6,64.4,78,30.02,10.0,SSW,8.1,-,N/A,,Clear,200,2012-09-26 15:52:00
11:52 AM,71.1,62.1,73,30.03,10.0,WNW,6.9,-,N/A,,Mostly Cloudy,290,2012-09-26 16:52:00
12:52 PM,66.9,62.1,84,30.06,10.0,West,13.8,-,0.00,Rain,Light Rain,280,2012-09-26 17:52:00
1:52 PM,66.9,62.1,84,30.01,10.0,NW,3.5,-,0.02,,Scattered Clouds,320,2012-09-26 18:52:00
2:52 PM,70.0,62.1,76,29.99,10.0,NNW,3.5,-,N/A,,Clear,330,2012-09-26 19:52:00
3:52 PM,72.0,62.1,71,29.99,10.0,NNW,5.8,-,N/A,,Partly Cloudy,340,2012-09-26 20:52:00
4:52 PM,72.0,61.0,68,30.02,10.0,Calm,Calm,-,N/A,,Overcast,0,2012-09-26 21:52:00
5:52 PM,71.1,62.1,73,30.04,10.0,NE,3.5,-,N/A,,Overcast,40,2012-09-26 22:52:00
6:52 PM,69.8,62.6,78,30.05,10.0,ENE,4.6,-,N/A,,Overcast,60,2012-09-26 23:52:00
7:52 PM,70.0,63.0,78,30.04,10.0,East,3.5,-,N/A,,Overcast,80,2012-09-27 00:52:00
8:52 PM,69.1,62.1,78,30.05,10.0,ENE,4.6,-,N/A,,Mostly Cloudy,70,2012-09-27 01:52:00
9:52 PM,69.1,63.0,81,30.06,10.0,East,3.5,-,N/A,,Overcast,100,2012-09-27 02:52:00
10:52 PM,66.0,62.1,87,30.06,10.0,South,3.5,-,N/A,,Mostly Cloudy,170,2012-09-27 03:52:00
11:52 PM,66.0,62.1,87,30.07,10.0,South,4.6,-,N/A,,Overcast,170,2012-09-27 04:52:00